Location: Chiroubles
(46.1812°N, 4.6660°E)
Time: 05:41:51
(UTC+00:00)

Transit 4A - Pass Details

Date: 01 December 2020
Orbit: 864 x 980 km, 66.8° (Epoch: 25 January)

Event Time Altitude Azimuth Distance (km) Brightness Sun altitude
Rises 13:35:24 0° 327° (NNW) 3,691 10.8 16.3°
Reaches altitude 10° 13:38:44 10° 344° (NNW) 2,735 10.0 16.0°
Maximum altitude 13:43:26 21° 31° (NNE) 2,037 9.2 15.5°
Drops below altitude 10° 13:48:04 10° 79° (E) 2,691 10.0 15.1°
Sets 13:51:18 0° 95° (E) 3,615 10.7 14.8°
